COSMOS 1867 COOLANT

Satellite information

Favourite Embed

Satellite Type and Status

DEBRISIN ORBIT

Key statistics

Satellite COSMOS 1867 COOLANT at a glance.

Uptime

13815

Days in orbit

Revolutions

≈ 14.3

Per day

Orbit

LEO

Low Earth Orbit

Inclination

65.0

Latest

Satellite identification and parameters

Extended collection of information and parameters for COSMOS 1867 COOLANT.

Object identification

Identified? True

Debris? False

Object name: COSMOS 1867 COOLANT

International designator: 1987-060P

Object number (NORAD): 39646

Object ID (CCSDS): 39646

Country: COMMONWEALTH OF INDEPENDENT STATES (CIS)

Current information (Y/N): Y

RCS size: SMALL

Orbital parameters

Period: 100.457 minutes

Inclination: 65.0096 deg

SMA: 7158.383 km

Apoapsis: 791.716 km

Periapsis: 768.78 km

RAAN: 76.4474 deg

Eccentricy: 0.001602

Argument of periapsis: 260.5088 deg

Mean anomaly: 99.4186 deg

Mean motion: 14.33442845 rev/day

Mean motion (dot): 0.00000558 rev/day2

B* drag term: 0.0002378 1/REarth

Two-line elements (TLE)

Creation date: May 6, 2025, 3:54 a.m.

Reference frame: TEME

Reference center: EARTH

Epoch: May 5, 2025, 8:41 p.m. UTC

TLE line 0: 0 COSMOS 1867 COOLANT

TLE line 1: 1 39646U 87060P 25125.86228006 .00000558 00000-0 23780-3 0 9997

TLE line 2: 2 39646 65.0096 76.4474 0016020 260.5088 99.4186 14.33442845579237

Live tracking on map

Real-time ground track for satellite COSMOS 1867 COOLANT.

In-orbit conjunctions

A list of the most updated potential collisions computed for object COSMOS 1867 COOLANT.

Target Orbit TCA Probability of collision Miss distance Type
FENGYUN 1C DEB SSO 2024-12-03 03:16:21 0.0002386266 196.0 (m) DEBRIS
FENGYUN 1C DEB SSO 2024-11-11 22:38:04 0.0001079442 418.0 (m) DEBRIS
DMSP 5D-3 F19 DEB SSO 2024-09-26 21:33:52 0.000302737 783.0 (m) DEBRIS

Associated space launch

Nuclear-powered magnetospheric research satellite

COSMOS 1867 COOLANT was lifted into orbit during the mission ‘Tsiklon-2 | Plasma-A 2’, on board a Tsiklon-2 space rocket.

The launch took place on July 10, 1987, 3:35 p.m. from 90.

For more information about the launch, click the button.

Launch to space Tsiklon-2 | Plasma-A 2
Tsiklon-2 | Plasma-A 2

Agency: N/A

Status: Launch Successful

Launch date: July 10, 1987, 3:35 p.m. UTC

Rocket: Tsiklon-2

Launch pad: 90

Location: Baikonur Cosmodrome, Republic of Kazakhstan

...

Latest news about this satellite

There are no fresh news available about this satellite. Check back as we update our databases every day.


Newsletter sign-up

Weekly statistics, charts and insights to help you stay on top of the space industry.